Regional Weather Roundup
Issued by NWS

Home | Current Version | Previous Version | Text Only | Print | Product List | Glossary Off
Versions: 1 2 3 4 5 6 7 8 9 10 11 12 13 14 15 16 17 18 19 20 21 22 23 24 25 26 27 28 29 30 31 32 33 34 35 36 37 38 39 40 41 42 43 44 45 46 47 48 49 50

000
ASUS43 KLMK 111802
RWRKY
KENTUCKY REGIONAL WEATHER ROUNDUP
NATIONAL WEATHER SERVICE LOUISVILLE KY
100 PM EST MON DEC 11 2017

NOTE "FAIR" INDICATES FEW OR NO CLOUDS BELOW 12,000 FEET
WITH NO SIGNIFICANT WEATHER AND/OR OBSTRUCTIONS TO VISIBILITY.

KYZ001>023-026-027-061>063-070>075-111900-
WESTERN AND SOUTH CENTRAL KENTUCKY

CITY           SKY/WX    TMP DP  RH WIND       PRES   REMARKS
PADUCAH        SUNNY     57  28  33 SW12G26   29.93F
HENDERSON      SUNNY     53  33  46 S15G25    29.89F
OWENSBORO      SUNNY     52  32  46 S17       29.92F
HOPKINSVILLE   SUNNY     55  28  34 S17       29.98F
BOWLING GREEN  SUNNY     54  31  41 S15G23    30.00F
GLASGOW        NOT AVBL
$$

KYZ024-025-028>034-038-045-046-053-111900-
NORTH CENTRAL KENTUCKY

CITY           SKY/WX    TMP DP  RH WIND       PRES   REMARKS
LOUISVILLE/SDF SUNNY     50  28  42 S13       29.92F
LOUISVILLE/LOU SUNNY     48  29  47 S7        29.94F
FORT KNOX      MOSUNNY   51  28  41 S14       29.92F
$$

KYZ035>037-039>044-047>052-055>060-089>105-111900-
NORTHEAST KENTUCKY

CITY           SKY/WX    TMP DP  RH WIND       PRES   REMARKS
LEXINGTON      MOSUNNY   49  28  44 S15       29.96F
COVINGTON      PTSUNNY   40  28  62 SW10      29.92F WCI  33
FRANKFORT      SUNNY     47  25  42 SW14      29.94F
$$

KYZ054-064>069-076>088-106>120-111900-
SOUTHEAST KENTUCKY

CITY           SKY/WX    TMP DP  RH WIND       PRES   REMARKS
JACKSON        SUNNY     49  27  42 MISG      29.98F
LONDON         SUNNY     49  27  42 S8        30.00F
SOMERSET       MOSUNNY   50  28  43 W13       30.02F
MIDDLESBORO    SUNNY     48  29  48 S8G16     30.03F
MONTICELLO     CLEAR     52  29  41 W15       30.02F
$$





USA.gov is the U.S. government's official web portal to all federal, state and local government web resources and services.